Location: Saalfelden+am+Steinernen+Meer
(47.4274°N, 12.8411°E)
Time: 02:21:20
(UTC+01:00)

OTV 5 (USA 277) - Visible Passes

Search period start: 17 January 2018 00:00
Search period end: 27 January 2018 00:00
Orbit: 404 x 417 km, 43.0° (Epoch: 07 September)

Date Brightness Start Highest point End Pass type
(mag) Time Alt. Az. Time Alt. Az. Time Alt. Az.
23 Jan ? 19:17:20 10° SSW 19:18:11 14° SSW 19:18:11 14° SSW visible
24 Jan ? 18:26:53 10° SSW 18:28:59 16° SSE 18:29:40 15° SE visible
25 Jan ? 17:36:54 10° S 17:38:07 12° SSE 17:39:20 10° SE visible
25 Jan ? 19:11:47 10° SW 19:13:51 25° SSW 19:13:51 25° SSW visible
26 Jan ? 18:21:01 10° SW 18:23:50 25° SSE 18:25:15 19° SE visible
26 Jan ? 19:57:35 10° WSW 19:58:01 13° WSW 19:58:01 13° WSW visible
